Regional Weather Roundup
Issued by NWS Little Rock, AR

Home | Current Version | Previous Version | Graphics & Text | Print | Product List | Glossary On
Versions: 1 2 3 4 5 6 7 8 9 10 11 12 13 14 15 16 17 18 19 20 21 22 23 24 25 26 27 28 29 30 31 32 33 34 35 36 37 38 39 40 41 42 43 44 45 46 47 48 49 50
000
ASUS44 KLZK 190005
RWRLZK

WEATHER ROUNDUP FOR ARKANSAS
NATIONAL WEATHER SERVICE LITTLE ROCK AR
700 PM CDT THU SEP 18 2014

NOTE: "FAIR" INDICATES FEW OR NO CLOUDS BELOW 12,000 FEET WITH NO
SIGNIFICANT WEATHER AND/OR OBSTRUCTIONS TO VISIBILITY.

ARZ001-003-010-029-190100-
NORTHWEST ARKANSAS

CITY           SKY/WX    TMP DP  RH WIND       PRES   REMARKS
FAYETTEVILLE   MOCLDY    74  66  76 E6        29.95R
6HR MIN TEMP:  74; 6HR MAX TEMP:  81;

FORT SMITH     CLEAR     79  66  64 E6        29.91R
6HR MIN TEMP:  78; 6HR MAX TEMP:  84;

HARRISON       CLOUDY    67  64  90 E6        30.01R
6HR MIN TEMP:  67; 6HR MAX TEMP:  74;

BENTONVILLE    CLEAR     73  63  68 E13       29.97R
6HR MIN TEMP:  73; 6HR MAX TEMP:  79;

ROGERS         CLEAR     72  64  76 E9        29.97S
6HR MIN TEMP:  72; 6HR MAX TEMP:  77;

SILOAM SPGS    CLEAR     75  63  64 CALM      29.95S
6HR MIN TEMP:  75; 6HR MAX TEMP:  82;

HIGHFILL       CLEAR     73  65  75 E9        29.96R
6HR MIN TEMP:  73; 6HR MAX TEMP:  79;

SPRINGDALE     CLEAR     75  66  73 E12       29.98R
$$

ARZ004-005-016-190100-
NORTH CENTRAL ARKANSAS

CITY           SKY/WX    TMP DP  RH WIND       PRES   REMARKS
BATESVILLE     CLOUDY    70  63  78 N5        29.98R
6HR MIN TEMP:  70; 6HR MAX TEMP:  75;

FLIPPIN        CLOUDY    64  61  88 CALM      30.01R
6HR MIN TEMP:  64; 6HR MAX TEMP:  66;

MTN HOME       CLOUDY    66  64  93 CALM      30.00R FOG
6HR MIN TEMP:  65; 6HR MAX TEMP:  67;

$$

ARZ040-041-190100-
WEST CENTRAL ARKANSAS

CITY           SKY/WX    TMP DP  RH WIND       PRES   REMARKS
MENA           CLEAR     79  70  73 CALM      29.93S
MOUNT IDA      CLEAR     78  69  73 E3        29.91R
6HR MIN TEMP:  78; 6HR MAX TEMP:  87;

$$

ARZ009-017-025-026-028-190100-
NORTHEAST ARKANSAS

CITY           SKY/WX    TMP DP  RH WIND       PRES   REMARKS
CORNING          N/A     70  64  83 NE5       29.99R
JONESBORO      MOCLDY    70  63  78 NE8       29.98R
6HR MIN TEMP:  70; 6HR MAX TEMP:  75; 6HR PCP:  0.01;

NEWPORT        PTCLDY    69  65  87 N9        29.98R
6HR MIN TEMP:  69; 6HR MAX TEMP:  77;

WALNUT RIDGE   MOCLDY    70  63  78 CALM      29.98R
6HR MIN TEMP:  66; 6HR MAX TEMP:  72;

BLYTHEVILLE    MOCLDY    70  65  84 NE3       29.98R
6HR MIN TEMP:  70; 6HR MAX TEMP:  75;

$$

ARZ022-023-033-042-044-190100-
CENTRAL ARKANSAS

CITY           SKY/WX    TMP DP  RH WIND       PRES   REMARKS
LITTLE ROCK    MOCLDY    76  67  73 NE7       29.94R
6HR MIN TEMP:  76; 6HR MAX TEMP:  81;

N LITTLE ROCK  MOCLDY    75  69  83 E7        29.94R
6HR MIN TEMP:  74; 6HR MAX TEMP:  80;

JACKSONVILLE   PTCLDY    75  67  77 NE8       29.94R
6HR MIN TEMP:  75; 6HR MAX TEMP:  80;

SEARCY         CLOUDY    73  66  78 N12       29.96R
6HR MIN TEMP:  73; 6HR MAX TEMP:  81;

HOT SPRINGS    MOCLDY    78  67  68 E8        29.93R
6HR MIN TEMP:  78; 6HR MAX TEMP:  87;

RUSSELLVILLE   PTCLDY    76  68  76 E3        29.94R
6HR MIN TEMP:  76; 6HR MAX TEMP:  82;

CLINTON        CLOUDY    70  66  88 CALM      29.99R
$$

ARZ036-190100-
EAST ARKANSAS

CITY           SKY/WX    TMP DP  RH WIND       PRES   REMARKS
WEST MEMPHIS   MOCLDY    74  69  85 NE9       29.93R
6HR MIN TEMP:  74; 6HR MAX TEMP:  83;

$$

ARZ050-053-066-070-073-190100-
SOUTHWEST ARKANSAS

CITY           SKY/WX    TMP DP  RH WIND       PRES   REMARKS
ARKADELPHIA    MOCLDY    75  74  97 CALM      29.92R
6HR MIN TEMP:  75; 6HR MAX TEMP:  90; 6HR PCP:  0.59;

CAMDEN         MOCLDY    77  72  83 NE3       29.90R
TEXARKANA      MOCLDY    79  74  84 E3        29.89R
6HR MIN TEMP:  71; 6HR MAX TEMP:  83; 6HR PCP:  0.07;

EL DORADO      MOCLDY    80  74  81 CALM      29.89R HX  85
6HR MIN TEMP:  77; 6HR MAX TEMP:  86;

DE QUEEN       MOCLDY    79  73  82 CALM      29.87R
6HR MIN TEMP:  77; 6HR MAX TEMP:  85;

$$

ARZ056-057-069-190100-
SOUTHEAST ARKANSAS

CITY           SKY/WX    TMP DP  RH WIND       PRES   REMARKS
PINE BLUFF     PTCLDY    76  69  79 NE3       29.91S
6HR MIN TEMP:  71; 6HR MAX TEMP:  86; 6HR PCP:  0.01;

STUTTGART      PTCLDY    73  66  78 N8        29.92F
6HR MIN TEMP:  73; 6HR MAX TEMP:  82;

MONTICELLO     PTCLDY    77  70  79 SE9       29.92R
6HR MIN TEMP:  77; 6HR MAX TEMP:  88; 6HR PCP: TRACE;


$$




USA.gov is the U.S. government's official web portal to all federal, state and local government web resources and services.